{"data":{"norad_id":55924,"intl_designator":"2023-037L","name":"STARLINK-5849","alt_names":[],"object_type":"PAYLOAD","status":"ACTIVE","operator":null,"country":"US","launch_date":"2023-03-17","launch_site_code":"AFWTR","launch_vehicle":null,"mission":null,"orbit_class":"UNKNOWN","rcs_meters":null,"size_class":null,"mass_kg":null,"dimensions":null,"purposes":["comms"],"wikipedia_slug":null,"has_3d_model":false,"image_url":null,"decayed_at":null,"tle_current":{"epoch":"2026-09-20T22:00:03.000096Z","epoch_age_seconds":70225,"freshness":"FRESH","line1":"1 55924U 23037L   26263.91670139  .00020315  00000+0  14219-2 0  9994","line2":"2 55924  70.0026 152.3113 0003703 244.7539  31.3556 15.05249984  5662","mean_motion":15.05249984,"eccentricity":0.0003703,"inclination_deg":70.0026,"raan_deg":152.3113,"arg_perigee_deg":244.7539,"mean_anomaly_deg":31.3556,"bstar":0.0014219,"rev_number":566,"period_min":95.665172915225,"perigee_km":548.1726726079,"apogee_km":553.30419775519,"semimajor_km":6928.8754351815,"source":"CELESTRAK","updated_at":"2026-09-21T09:00:33.324048Z"}}}